This is the latest recevied weather packets stored in our database for station/object KB5DPX. If no packets are shown the sender has not sent any weather packets the latest 10 day(s).
| Time | Temp. | Humidity | Pressure | Rain* | Wind** | Luminosity | Snow |
|---|---|---|---|---|---|---|---|
| 1788569000 | 18.33° C | 77% | 1016.4 hPa | 0 mm | - | 0 W/m² | - |
| 1788568713 | 18.89° C | 77% | 1016.5 hPa | 0 mm | - | 0 W/m² | - |
| 1788568403 | 18.89° C | 78% | 1016.5 hPa | 0 mm | - | 0 W/m² | - |
| 1788568120 | 18.89° C | 80% | 1016.4 hPa | 0 mm | - | 0 W/m² | - |
| 1788567804 | 18.89° C | 82% | 1016.3 hPa | 0 mm | - | 0 W/m² | - |
| 1788567516 | 19.44° C | 83% | 1016.4 hPa | 0 mm | - | 0 W/m² | - |
| 1788567220 | 19.44° C | 83% | 1016.4 hPa | 0 mm | - | 0 W/m² | - |
| 1788566900 | 19.44° C | 84% | 1016.4 hPa | 0 mm | - | 0 W/m² | - |
| 1788566319 | 19.44° C | 85% | 1016.4 hPa | 0 mm | - | 9 W/m² | - |
| 1788566006 | 20° C | 85% | 1016.2 hPa | 0 mm | - | 14 W/m² | - |
| 1788565721 | 20° C | 85% | 1016.2 hPa | 0 mm | - | 23 W/m² | - |
| 1788565404 | 20° C | 85% | 1016.3 hPa | 0 mm | - | 26 W/m² | - |
| 1788565120 | 19.44° C | 85% | 1016.3 hPa | 0 mm | - | 30 W/m² | - |
| 1788564825 | 19.44° C | 85% | 1016.2 hPa | 0 mm | - | 28 W/m² | - |
| 1788564217 | 19.44° C | 85% | 1016 hPa | 0 mm | - | 37 W/m² | - |
| 1788563904 | 19.44° C | 85% | 1016.1 hPa | 0 mm | - | 46 W/m² | - |
| 1788563619 | 19.44° C | 85% | 1016.1 hPa | 0 mm | - | 39 W/m² | - |
| 1788563322 | 19.44° C | 85% | 1016 hPa | 0 mm | - | 37 W/m² | - |
| 1788563009 | 19.44° C | 85% | 1016 hPa | 0 mm | - | 44 W/m² | - |
| 1788562721 | 19.44° C | 84% | 1016 hPa | 0 mm | - | 54 W/m² | - |
| 1788562400 | 19.44° C | 84% | 1016 hPa | 0 mm | - | 53 W/m² | - |
| 1788562124 | 19.44° C | 84% | 1015.8 hPa | 0 mm | - | 51 W/m² | - |
| 1788561820 | 19.44° C | 84% | 1015.8 hPa | 0 mm | - | 54 W/m² | - |
| 1788561507 | 19.44° C | 84% | 1015.8 hPa | 0 mm | - | 56 W/m² | - |
| 1788561221 | 19.44° C | 83% | 1015.9 hPa | 0 mm | - | 35 W/m² | - |
* Rain latest hour (hover to see other rain measurements)
** Current wind speed in m/s (hover to see current wind gust speed)